Back to catalog

FENGYUN 1C DEB

AliveSSO
NORAD 31225·DEBRIS·🇨🇳 China

Launched May 10, 1999 from Taiyuan Satellite Launch Center

Loading…

Next Passes (next 24 hours)

TLE

FreshSource: Space-Track

Epoch: Sep 13, 2026, 04:03 UTC

1 31225U 99025BLF 26256.16942220  .00001700  00000-0  80290-3 0  9995
2 31225  98.9768 337.8620 0085370 288.1792 100.7378 14.19276817997132

Track FENGYUN 1C DEB in real time with AllMySat

Download on the App Store